Starlink 11362

operational
NORAD ID: 61535 Int'l Des: 2024-184 Owner: SPXS Country: US Constellation: starlink
LEOCIRCULAR

About Starlink 11362

Description loading...

Live Position

Loading 3D Globe...

Upcoming Passes

Altitude History

Altitude vs Time

uPlot chart will show altitude changes over time

Two-Line Element Set

1 61535U 24184D 26035.73706610 -.00000305 00000-0 23393-5 0 9999
2 61535 53.1591 38.5681 0000668 116.7911 243.3175 15.69695951 75242
Epoch: Feb 4, 2026 • Age: 12 hours

Current Status

Altitude 360.9 km
Velocity 7.70 km/s
Sub-Earth Point 26.35°N, 168.57°W
Launch Date Oct 15, 2024
Age 1.3 years
Type internet

Technical Details

Classification Payload
Mass 960.00 kg
Dry Mass 910.00 kg
Total Mass 960.00 kg
Length 0.30 m
Diameter 4.10 m
Span 29.00 m
Shape Box + pan
Manufacturer SPXS
Bus Type Starlink V2MD
Phase Status In Orbit
Owner/State SPXS/US

Large Constellations

Loading constellations...